Lid_Strength_Index
13 15 15 15 15 14 15 15 16 17 17 17 17 16 15 15 14 15 15 15 15 15 15 14 14 13 13 13 14 13 13 14 15 13 18 17 16 15 15 14 15 15 14
13 13 14 14 15 16 16 16 16 16 16 16 16 16 15 15 15 15 15 15 15 15 15 15 14 12 14 13 13 14 14 13 14 15 18 19 18 15 15 15 16 15 16
14 14 14 15 15 15 14 15 15 15 15 15 15 15 15 15 15 15 15 15 15 15 15 14 13 13 13 13 13 13 13 13 13 14 14 19 18 16 17 16 16 16 17
12 13 14 14 13 14 14 14 14 14 14 15 14 15 15 14 14 14 14 15 16 15 14 14 13 12 12 13 13 13 13 13 13 14 14 20 18 18 16 17 19 17 17
13 13 13 12 13 13 13 13 13 13 13 14 15 14 14 14 14 14 14 14 15 15 14 13 12 12 11 10 12 12 13 14 13 14 15 19 19 19 18 17 17 17 17
13 13 12 12 11 11 11 12 12 12 12 13 13 14 14 14 12 11 12 13 13 14 14 13 13 13 12 9 9 9 10 12 13 13 14 14 15 16 17 17 17 18 21
11 11 11 11 11 11 11 11 11 11 12 12 13 13 14 14 12 11 12 13 13 13 13 13 14 13 13 12 10 9 9 9 9 11 13 13 13 15 16 17 17 16 16
11 12 11 11 11 11 11 12 12 12 12 12 13 13 13 13 11 11 11 13 14 14 14 14 13 13 12 12 12 12 11 11 11 10 11 11 11 12 15 15 16 15 16
12 13 13 14 15 15 15 15 15 15 15 15 14 14 14 14 11 11 12 13 14 15 14 14 14 14 12 10 12 12 12 11 9 9 9 9 9 9 13 14 16 17 19
14 15 15 16 17 18 18 18 18 18 18 18 18 18 17 18 15 14 13 15 16 16 15 15 13 13 11 10 11 12 12 12 11 11 11 10 9 10 10 13 14 16 16
16 17 17 18 19 20 20 20 21 21 20 21 21 20 20 19 19 16 15 16 17 17 17 16 14 11 11 10 9 10 11 10 9 10 11 12 11 11 11 12 13 14 15
18 19 20 21 21 21 22 22 22 23 23 23 23 23 21 20 18 17 15 14 14 16 17 16 15 12 11 9 9 8 8 8 8 10 11 11 12 12 11 12 13 13 12
21 22 22 22 22 22 23 23 23 23 23 23 23 23 22 20 20 18 16 16 16 17 17 15 13 13 12 10 8 8 8 9 8 9 11 11 11 10 10 12 13 14 16
23 22 22 22 23 23 23 23 23 24 24 23 24 23 23 22 20 19 20 20 18 18 17 17 16 13 12 11 10 9 10 9 8 8 9 10 10 10 11 12 15 16 16
22 22 23 23 24 24 23 23 23 22 21 21 20 19 19 19 18 15 15 16 17 17 17 17 17 16 15 14 12 11 10 9 9 8 9 10 10 11 12 12 14 16 17
22 22 23 24 25 24 24 24 20 18 17 15 14 15 15 13 13 13 13 13 13 13 16 18 18 17 16 15 13 11 9 9 9 8 8 10 11 11 12 13 14 16 18
23 22 23 24 25 25 25 25 25 22 17 16 15 13 12 12 12 12 12 12 12 13 17 18 18 17 16 15 12 11 10 9 8 8 9 10 11 11 13 14 15 17 18
22 22 23 24 25 25 25 24 24 24 24 22 16 14 13 12 12 12 12 12 16 16 18 19 18 17 16 14 13 11 9 9 9 9 10 10 11 13 15 15 16 17 19
22 23 23 23 23 23 24 23 23 23 22 21 18 15 15 13 12 12 12 16 18 18 18 18 18 17 16 14 11 9 9 9 10 10 11 12 12 14 15 16 17 17 19
23 22 22 24 24 24 23 23 23 22 22 20 19 18 17 16 17 17 16 16 16 16 17 17 16 14 13 13 10 8 9 10 11 12 12 13 14 14 16 17 17 19 20
22 23 24 24 24 24 23 23 22 22 22 22 21 19 14 18 19 18 18 17 16 17 17 13 12 11 9 9 9 10 11 12 12 13 14 15 15 17 17 17 18 19 20
24 24 24 25 24 24 24 23 23 23 22 23 22 20 16 20 20 19 18 18 17 16 15 14 13 12 11 11 11 12 12 13 14 15 16 16 17 17 18 19 19 20 21
24 25 25 25 25 24 24 24 23 23 22 22 22 22 21 21 20 20 19 18 17 17 16 15 14 14 13 13 12 13 14 14 15 15 16 17 18 19 19 20 20 21 21
26 26 26 26 25 25 25 24 23 23 22 22 22 22 21 21 21 20 19 19 18 18 17 17 16 16 15 15 14 14 14 15 15 16 16 17 18 18 19 19 19 20 20
28 27 27 27 26 26 25 25 24 23 23 22 22 22 22 21 21 20 20 19 19 19 18 17 17 16 16 15 15 15 15 15 16 16 17 17 18 18 19 19 20 20 20
29 29 29 27 27 26 25 25 24 23 23 22 22 22 22 22 21 21 20 20 19 19 19 18 17 16 16 15 15 15 14 15 17 17 17 18 19 19 19 20 20 20 21